Preview of NWS' New Version of Forecast
This preview is not operational and should not be used for support decisions.
Latest weather observations around

Boyd Deep Canyon Reserve (UCNRS) (UCDE)

Using English Units (Switch to International System of Units)
Date/ Time (PST) Wind (mph) Vis. (mi) Weather Sky Cond. Temp (°F) Rel. Humidity Wind Chill (°F) Heat Index (°F) Pressure Precip. (in)
Air Dwpt 6 hour Altimeter (inHg) Sea level (inHg) 1 hr 3 hr 6 hr
Max Min
Feb 19 19:00 SW 12   Clear   48 29     47% 43   29.84        
Feb 19 18:50 SSW 9   Clear   49 26     40% 46   29.82        
Feb 19 18:40 SSW 9   Clear   49 26     40% 45   29.81        
Feb 19 18:30 S 5   Clear   49 28     44% 46   29.82        
Feb 19 18:20 S 11   Clear   48 29     47% 43   29.82        
Feb 19 18:10     Clear   47 30     51%     29.81        
Feb 19 18:00     Clear   49 26     40%     29.81        
Feb 19 17:30 SW 10   Clear   51 19     28%     29.8        
Feb 19 17:20 SW 9   Clear   51 19     28%     29.8        
Feb 19 17:10 SW 7   Clear   52 19     27%     29.79        
Feb 19 17:00 SW 8   Clear   52 18     26%     29.79        
Feb 19 16:50 SSW 8   Clear   52 19     26%     29.79        
Feb 19 16:40 SW 11   Clear   52 17     24%     29.79        
Feb 19 16:30 SSW 12   Clear   52 19     26%     29.78        
Feb 19 16:20 SSW 15   Clear   53 18     25%     29.77        
Feb 19 16:10 SSW 12   Clear   53 18     25%     29.77        
Feb 19 16:00 SSW 17   Clear   53 18     25%     29.77        
Feb 19 15:50 SSW 15   Clear   53 18     25%     29.77        
Feb 19 15:40 SSW 16   Clear   53 17     24%     29.76        
Feb 19 15:30 SSW 17   Clear   53 17     24%     29.76        
Feb 19 15:20     Clear   53 17     23%     29.76        
Feb 19 15:10     Clear   53 15     21%     29.76        
Feb 19 15:00     Clear   54 14     20%     29.75        
Feb 19 14:50 SW 17   Clear   54 12     18%     29.76        
Feb 19 14:40 SW 12   Clear   55 8     15%     29.76        
Feb 19 14:30 WSW 11   Clear   54 6     14%     29.76        
Feb 19 14:20 SSW 12   Clear   55 5     13%     29.76        
Feb 19 14:10 SW 7   Clear   55 4     12%     29.76        
Feb 19 14:00 SW 9   Clear   55 3     12%     29.76        
Feb 19 13:50 SW 10   Clear   56        %     29.76        
Feb 19 13:40 SW 10   Clear   56 2     11%     29.77        
Feb 19 13:30 SW 13   Clear   56 3     11%     29.76        
Feb 19 13:20 SW 11   Clear   56 0     10%     29.77        
Feb 19 13:10 W 12   Clear   56 1     10%     29.77        
Feb 19 13:00 WSW 7   Clear   57 1     10%     29.77        
Feb 19 12:50 WSW 8   Clear   57 1     10%     29.77        
Feb 19 12:40 W 8   Clear   57 1     10%     29.77        
Feb 19 12:30 SW 12   Clear   57 -2     9%     29.77        
Feb 19 12:20 SW 13   Clear   57 -1     9%     29.77        
Feb 19 12:10 WSW 9   Clear   56 -2     9%     29.78        
Feb 19 12:00 SW 11   Clear   57 -2     9%     29.78        
Feb 19 11:50 SW 13   Clear   56        %     29.78        
Feb 19 11:40 SW 11   Clear   57        %     29.79        
Feb 19 11:30 WSW 7   Clear   57 -1     9%     29.79        
Feb 19 11:20 W 8   Clear   56 1     10%     29.79        
Feb 19 11:10 W 9   Clear   56 2     11%     29.79        
Feb 19 11:00 WSW 9   Clear   56 7     14%     29.78        
Feb 19 10:50 W 8   Clear   55 9     15%     29.78        
Feb 19 10:40 WSW 10   Clear   55 11     17%     29.79        
Feb 19 10:30 WNW 8   Clear   55 13     18%     29.78        
Feb 19 10:20 W 9   Clear   55 15     21%     29.78        
Feb 19 10:10 WSW 10   Clear   54 22     28%     29.78        
Feb 19 10:00 WNW 9   Clear   56 21     26%     29.77        
Feb 19 09:50 WSW 6   Clear   56 24     29%     29.77        
Feb 19 09:40 SSW 11   Clear   54 28     36%     29.76        
Feb 19 09:30 SW 10   Clear   54 29     39%     29.76        
Feb 19 09:20 WSW 14   Clear   54 32     43%     29.75        
Feb 19 09:10 SW 14   Clear   55 28     35%     29.74        
Feb 19 09:00 SSW 13   Clear   54 29     37%     29.73        
Feb 19 08:50 SW 17   Clear   53 29     39%     29.72        
Feb 19 08:40 WSW 23   Clear and Windy   53 29     40%     29.71        
Feb 19 08:30 SW 22   Clear and Windy   53 29     41%     29.71        
Feb 19 08:20 SW 22   Clear and Windy   52 29     40%     29.71        
Feb 19 08:10 WSW 25   Clear and Windy   52 27     38%     29.69        
Feb 19 08:00 WSW 21   Clear and Windy   51 30     44%     29.69        
Feb 19 07:50 WSW 21   Clear and Windy   51 31     46%     29.68        
Feb 19 07:40 WSW 27   Clear and Breezy   51 29     42%     29.67        
Feb 19 07:30 SW 21   Clear and Windy   51 28     41%     29.67        
Feb 19 07:20 WSW 18   Clear   51 29     43%     29.67        
Feb 19 07:10     Clear   50 32     49%     29.66        
Feb 19 07:00     Clear   51 31     46%     29.65        
Feb 19 06:50 SW 15   Clear   51 32     48%     29.65        
Feb 19 06:40 SW 18   Clear   50 31     48%     29.64        
Feb 19 06:30 SSW 10   Clear   51 29     43%     29.64        
Feb 19 06:20 NW 11   Clear   51 27     39%     29.65        
Feb 19 06:10 W 8   Clear   51 28     40%     29.66        
Feb 19 06:00 S 5   Clear   51 28     40%     29.66        
Feb 19 05:50 SSE 8   Clear   51 27     39%     29.65        
Feb 19 05:40 SSW 11   Clear   51 27     39%     29.65        
Feb 19 05:30 S 10   Clear   52 27     38%     29.65        
Feb 19 05:20 W 8   Clear   53 27     36%     29.65        
Feb 19 05:10 ENE 8   Clear   53 28     38%     29.65        
Feb 19 05:00 SE 5   Clear   53 29     39%     29.65        
Feb 19 04:50 N 7   Clear   54 29     38%     29.64        
Feb 19 04:40 S 6   Clear   53 31     42%     29.65        
Feb 19 04:30 SSE 8   Clear   53 32     44%     29.65        
Feb 19 04:20 SSE 9   Clear   53 33     46%     29.67        
Feb 19 04:10 WSW 3   Clear   53 30     41%     29.68        
Feb 19 04:00 SW 10   Clear   53 31     42%     29.69        
Feb 19 03:50 SSW 16   Clear   53 31     44%     29.69        
Feb 19 03:40 SW 14   Clear   53 32     45%     29.68        
Feb 19 03:30 SW 16   Clear   53 32     45%     29.68        
Feb 19 03:20 SW 15   Clear   53 32     44%     29.67        
Feb 19 03:10 SW 12   Clear   53 31     42%     29.67        
Feb 19 03:00     Clear   54 31     42%     29.67        
Feb 19 02:50     Clear   54 32     42%     29.67        
Feb 19 02:40     Clear   55 32     41%     29.68        
Feb 19 02:30 S 16   Clear   56 32     39%     29.68        
Feb 19 02:20 S 13   Clear   57 33     40%     29.68        
Feb 19 02:10 S 13   Clear   57 34     42%     29.68        
Feb 19 02:00 NW 4   Clear   57 32     38%     29.68        
Feb 19 01:50 S 9   Clear   57 33     41%     29.69        
Feb 19 01:40 S 11   Clear   57 33     41%     29.7        
Feb 19 01:30 SSW 12   Clear   57 32     38%     29.7        
Feb 19 01:20 SW 14   Clear   57 34     41%     29.71        
Feb 19 01:10 SSW 11   Clear   57 35     43%     29.71        
Feb 19 01:00 SW 10   Clear   57 35     43%     29.71        
Feb 19 00:50 SSW 12   Clear   58 36     44%     29.71        
Feb 19 00:40 SW 10   Clear   58 35     42%     29.72        
Feb 19 00:30 SW 9   Clear   58 35     43%     29.72        
Feb 19 00:20 S 9   Clear   57 35     43%     29.72        
Feb 19 00:10 SW 11   Clear   58 34     41%     29.72        
Feb 19 00:00 SW 9   Clear   57 34     41%     29.73        
Feb 18 23:30 SW 15   Clear   57 34     43%     29.74        
Feb 18 23:20 SW 19   Clear   56 35     44%     29.73        
Feb 18 23:10 SSW 21   Clear and Windy   56 34     43%     29.72        
Feb 18 23:00     Clear   56 34     44%     29.71        
Feb 18 22:50     Clear   56 35     46%     29.71        
Feb 18 22:40 SSW 21   Clear and Windy   56 36     47%     29.72        
Feb 18 22:30     Clear   55 35     47%     29.72        
Feb 18 22:20 SSW 21   Clear and Windy   55 35     46%     29.72        
Feb 18 22:10 SSW 21   Clear and Windy   55 34     45%     29.72        
Feb 18 22:00     Clear   56 33     42%     29.72        
Feb 18 21:50 SSE 9   Clear   58 28     32%     29.73        
Feb 18 21:40 ENE 7   Clear   60 25     26%     29.73        
Feb 18 21:30 NE 9   Clear   60 25     26%     29.72        
Feb 18 21:20 NE 7   Clear   60 25     26%     29.72        
Feb 18 21:10 NNE 7   Clear   60 25     25%     29.72        
Feb 18 21:00 NNE 4   Clear   61 24     24%     29.72        
Feb 18 20:50 ENE 2   Clear   61 22     22%     29.72        
Feb 18 20:40 NE 6   Clear   62 23     22%     29.71        
Feb 18 20:30 NE 8   Clear   62 22     21%     29.71        
Feb 18 20:20 N 9   Clear   62 22     22%     29.71        
Feb 18 20:10 N 5   Clear   62 24     23%     29.71        
Feb 18 20:00 N 7   Clear   62 25     24%     29.7        
Feb 18 19:50 N 9   Clear   62 25     24%     29.7        
Feb 18 19:40 WSW 10   Clear   62 27     26%     29.7        
Feb 18 19:30 WNW 11   Clear   63 26     25%              
Feb 18 19:20 NW 9   Clear   63 28     26%     29.69        
Feb 18 19:10 NW 11   Clear   63 28     26%     29.69        
Feb 18 19:00 WNW 13   Clear   63 29     27%     29.7        
Feb 18 18:50     Clear   64 29     27%     29.71        
Feb 18 18:40 SSE 14   Clear   64 29     27%     29.71        
Feb 18 18:30 S 14   Clear   64 29     27%     29.71        
Feb 18 18:20 S 11   Clear   64 31     28%     29.71        
Feb 18 18:10 S 11   Clear   65 31     28%     29.71        
Feb 18 18:00 S 16   Clear   64 31     29%     29.71        
Feb 18 17:50 S 15   Clear   64 31     28%     29.71        
Feb 18 17:40     Clear   64 31     29%     29.71        
Feb 18 17:30     Clear   65 31     28%     29.71        
Feb 18 17:20 S 12   Clear   66 31     27%     29.72        
Feb 18 17:10 S 15   Clear   65 31     28%     29.72        
Feb 18 17:00     Clear   65 31     28%     29.72        
Feb 18 16:50     Clear   66 32     28%     29.72        
Feb 18 16:40     Clear   66 31     27%     29.72        
Feb 18 16:30     Clear   67 31     26%     29.72        
Feb 18 16:20     Clear   67 30     25%     29.73        
Feb 18 16:10     Clear   68 30     24%     29.73        
Feb 18 16:00     Clear   69 31     25%     29.73        
Feb 18 15:50     Clear   69 32     25%     29.73        
Feb 18 15:40 SSW 23   Clear and Windy   69 31     24%     29.73        
Feb 18 15:30 SSW 20   Clear and Windy   70 31     24%     29.73        
Feb 18 15:20     Clear   70 31     24%     29.73        
Feb 18 15:10 SSW 16   Clear   71 32     24%   68 29.75        
Feb 18 15:00 SSW 16   Clear   71 31     23%   69 29.75        
Feb 18 14:50 S 11   Clear   72 32     23%   70 29.75        
Feb 18 14:40 SSE 5   Clear   72 30     21%   70 29.76        
Feb 18 14:30 N 3   Clear   72 27     19%   69 29.77        
Feb 18 14:20 N 6   Clear   71 27     19%   69 29.77        
Feb 18 14:10 N 7   Clear   71 27     19%   69 29.77        
Feb 18 14:00 N 7   Clear   71 26     19%   68 29.78        
Feb 18 13:50 NNW 7   Clear   71 25     18%   68 29.78        
Feb 18 13:40 N 8   Clear   70 26     19%     29.79        
Feb 18 13:30 N 6   Clear   70 26     19%     29.79        
Feb 18 13:20 N 6   Clear   69 25     19%     29.79        
Feb 18 13:10 NNW 7   Clear   69 25     19%     29.8        
Feb 18 13:00 NNE 4   Clear   69 25     19%     29.81        
Feb 18 12:50 N 4   Clear   69 25     19%     29.81        
Feb 18 12:40 NNE 5   Clear   68 23     18%     29.82        
Feb 18 12:30 N 4   Clear   69 23     18%     29.82        
Feb 18 12:20 N 3   Clear   68 23     18%     29.83        
Feb 18 12:10 NNE 4   Clear   68 23     18%     29.84        
Feb 18 12:00 N 5   Clear   68 21     17%     29.84        
Feb 18 11:50 NNW 4   Clear   67 21     17%     29.85        
Feb 18 11:40 N 3   Clear   68 20     16%     29.85        
Feb 18 11:30 ESE 4   Clear   66 22     19%     29.85        
Feb 18 11:20 ENE 6   Clear   65        %     29.85        
Feb 18 11:10 E 6   Clear   65        %     29.86        
Feb 18 11:00 ENE 6   Clear   65 20     17%     29.87        
Feb 18 10:50 N 4   Clear   65 20     17%     29.88        
Feb 18 10:40 N 4   Clear   65 19     17%     29.88        
Feb 18 10:30 NW 3   Clear   65 20     18%     29.89        
Feb 18 10:20 N 3   Clear   64 20     18%     29.89        
Feb 18 10:10 NNE 4   Clear   63 21     20%     29.89        
Feb 18 10:00 N 5   Clear   62 23     22%     29.89        
Feb 18 09:50 N 6   Clear   63 23     21%     29.89        
Feb 18 09:40 NNE 5   Clear   63 20     19%     29.89        
Feb 18 09:30 NNE 3   Clear   63 18     17%     29.89        
Feb 18 09:20 N 3   Clear   63 18     17%     29.89        
Feb 18 09:10 N 2   Clear   63 16     16%     29.89        
Feb 18 09:00 E 1   Clear   62 16     16%     29.89        
Feb 18 08:50 ENE 2   Clear   61 16     17%     29.9        
Feb 18 08:40 E 2   Clear   61 16     17%     29.9        
Feb 18 08:30 ESE 2   Clear   61 17     18%     29.9        
Feb 18 08:20 NW 1   Clear   61 17     18%     29.9        
Feb 18 08:10 E 1   Clear   60 17     19%     29.9        
Feb 18 08:00 SW 1   Clear   56 17     21%     29.9        
Feb 18 07:50 WNW 2   Clear   55 17     22%     29.9        
Feb 18 07:40 SSW 2   Clear   57 17     20%     29.89        
Feb 18 07:30 S 2   Clear   55 16     21%     29.89        
Feb 18 07:20 SSW 2   Clear   55 17     22%     29.89        
Feb 18 07:10 NNW 1   Clear   53        %     29.89        
Notice The following observation data may not be complete
Feb 18 07:00     Clear            %              
Feb 18 06:50 SW 1   Clear   52 16     24%     29.89        
Feb 18 06:40 Calm   Clear   53 15     22%     29.89        
Feb 18 06:30 SSE 1   Clear   53 16     22%     29.89        
Feb 18 06:20 SSW 5   Clear   51 16     24%     29.89        
Feb 18 06:10 S 1   Clear   50 15     24%     29.89        
Feb 18 06:00 SSE 1   Clear   51 15     24%     29.89        
Feb 18 05:50 SSW 1   Clear   52 15     23%     29.89        
Feb 18 05:40 SSW 2   Clear   52 15     23%     29.89        
Feb 18 05:30 S 3   Clear   52 15     23%     29.89        
Feb 18 05:20 SW 3   Clear   52 15     23%     29.89        
Feb 18 05:10 Calm   Clear   51 16     24%     29.89        
Feb 18 05:00 Calm   Clear   52 15     23%     29.89        
Feb 18 04:50 ESE 1   Clear   52 16     23%     29.89        
Feb 18 04:40 SSW 2   Clear   53 15     22%     29.89        
Feb 18 04:30 S 2   Clear   53 16     23%     29.89        
Feb 18 04:20 Calm   Clear   52 16     23%     29.89        
Feb 18 04:10 NNE 1   Clear   53 16     23%     29.89        
Feb 18 04:00 WSW 1   Clear   52 16     23%     29.89        
Feb 18 03:50 SSW 1   Clear   53 15     22%     29.89        
Feb 18 03:40 Calm   Clear   53 15     22%     29.9        
Feb 18 03:30 SSW 2   Clear   53 16     22%     29.9        
Feb 18 03:20 SW 2   Clear   53 16     22%     29.91        
Feb 18 03:10 E 2   Clear   53 16     23%     29.91        
Feb 18 03:00 S 2   Clear   53 15     22%     29.91        
Feb 18 02:50 SW 3   Clear   54 16     22%     29.91        
Feb 18 02:40 SW 4   Clear   54 16     22%     29.91        
Feb 18 02:30 S 4   Clear   54 16     22%     29.92        
Feb 18 02:20 ENE 1   Clear   54 16     22%     29.92        
Feb 18 02:10 S 2   Clear   54 16     22%     29.92        
Feb 18 02:00 SSW 3   Clear   54 16     22%     29.93        
Feb 18 01:50 SSW 1   Clear   54 16     22%     29.93        
Feb 18 01:40 Calm   Clear   55 17     22%     29.94        
Feb 18 01:30 SSW 1   Clear   55 17     22%     29.94        
Feb 18 01:20 SSW 2   Clear   55 17     22%     29.95        
Feb 18 01:10 Calm   Clear   56 16     21%     29.95        
Feb 18 01:00 Calm   Clear   55 16     21%     29.96        
Feb 18 00:50 SE 2   Clear   56 15     20%     29.96        
Feb 18 00:40 S 3   Clear   55 16     21%     29.96        
Feb 18 00:30 SSW 3   Clear   55 15     20%     29.96        
Feb 18 00:20 SSW 3   Clear   54 14     20%     29.96        
Feb 18 00:10 SSW 1   Clear   54 14     20%     29.96        
Feb 18 00:00 Calm   Clear   53 13     20%     29.97        
Feb 17 23:50 Calm   Clear   55 13     19%     29.97        
Feb 17 23:40 Calm   Clear   54 13     19%     29.97        
Feb 17 23:30 Calm   Clear   55 12     18%     29.98        
Feb 17 23:20 SSW 1   Clear   56 13     18%     29.98        
Feb 17 23:10 SW 1   Clear   56 12     17%     29.98        
Feb 17 23:00 Calm   Clear   55 12     18%     29.98        
Feb 17 22:50 Calm   Clear   56 12     17%     29.98        
Feb 17 22:40 NNW 1   Clear   57 11     16%     29.98        
Feb 17 22:30 NW 1   Clear   58 12     16%     29.98        
Feb 17 22:20 NW 1   Clear   60 11     14%     29.98        
Feb 17 22:10 S 2   Clear   59 13     16%     29.98        
Feb 17 22:00 ENE 1   Clear   59 16     18%     29.99        
Feb 17 21:50 SE 2   Clear   60 11     14%     29.99        
Feb 17 21:40 SSW 5   Clear   61 10     13%     29.99        
Feb 17 21:30 SSW 6   Clear   62 10     13%     29.99        
Feb 17 21:20 SSW 8   Clear   62 9     12%     29.99        
Feb 17 21:10 SSW 7   Clear   62 9     12%     29.99        
Feb 17 21:00 SSW 7   Clear   62 9     12%     29.99        
Feb 17 20:50 SSW 5   Clear   62 11     13%     29.99        
Feb 17 20:40 S 6   Clear   63 10     12%     29.99        
Feb 17 20:30 SSW 6   Clear   63 10     12%     29.99        
Feb 17 20:20 SSW 6   Clear   63 10     12%     29.99        
Feb 17 20:10 SSW 7   Clear   63 10     12%     29.99        
Feb 17 20:00 SSW 7   Clear   64 10     12%     29.99        
Feb 17 19:50 SSW 7   Clear   63        %     29.99        
Feb 17 19:40 SSW 7   Clear   63 12     13%     29.99        
Feb 17 19:30 S 5   Clear   63 12     13%     30        
Feb 17 19:20 S 4   Clear   64 12     13%     30        
Feb 17 19:10 SSW 5   Clear   64 12     13%     30        
Feb 17 19:00 SSW 6   Clear   64 12     13%     30        
Feb 17 18:50 SSW 5   Clear   64 12     13%     30        
Feb 17 18:40 S 4   Clear   63 13     14%     30        
Feb 17 18:30 S 4   Clear   63 13     14%     30        
Feb 17 18:20 SSE 3   Clear   63 13     14%     30        
Feb 17 18:10 S 1   Clear   63 13     14%     30        
Feb 17 18:00 Calm   Clear   64 14     14%     30        
Feb 17 17:50 WSW 2   Clear   65 13     13%     30        
Feb 17 17:40 SW 2   Clear   66 14     13%     29.99        
Feb 17 17:30 SE 3   Clear   67 12     12%     30        
Feb 17 17:20 E 4   Clear   67 13     12%     30        
Feb 17 17:10 E 5   Clear   67 13     12%     30        
Feb 17 17:00 E 4   Clear   68 13     12%     30        
Feb 17 16:50 E 4   Clear   68 14     12%     30        
Feb 17 16:40 E 4   Clear   69 14     12%     30        
Feb 17 16:30 E 3   Clear   69 12     11%     30.01        
Feb 17 16:20 ENE 3   Clear   70 11     10%   67 30.01        
Feb 17 16:10 E 4   Clear   71 12     10%   68 30.01        
Feb 17 16:00 NE 3   Clear   72 12     10%   69 30.02        
Feb 17 15:50 E 4   Clear   71 14     11%   68 30.02        
Feb 17 15:40 E 4   Clear   71 14     11%   68 30.02        
Feb 17 15:30 ESE 4   Clear   71 14     11%   68 30.02        
Feb 17 15:20 E 3   Clear   71 13     11%   68 30.03        
Feb 17 15:10 E 4   Clear   71 13     11%   68 30.03        
Feb 17 13:20 ENE 7   Clear   70 13     11%     30.07        
Feb 17 13:10 ENE 7   Clear   70 13     11%     30.08        
Feb 17 13:00 ENE 6   Clear   69 12     11%     30.08        
Feb 17 12:50 ENE 5   Clear   70 13     11%     30.09        
Feb 17 12:40 ENE 6   Clear   69 13     11%     30.1        
Feb 17 12:30 ENE 6   Clear   69 13     11%     30.1        
Feb 17 12:20 ENE 4   Clear   69 12     11%     30.11        
Feb 17 12:10 ENE 4   Clear   69 12     11%     30.11        
Feb 17 12:00 ENE 5   Clear   68 12     11%     30.12        
Feb 17 11:50 NE 4   Clear   69 10     10%     30.13        
Feb 17 11:40 NE 4   Clear   69 10     10%     30.13        
Feb 17 11:30 ENE 3   Clear   69 10     10%     30.13        
Feb 17 11:20 ENE 3   Clear   69 10     10%     30.14        
Feb 17 11:10 ESE 3   Clear   68 10     10%     30.14        
Feb 17 11:00 E 3   Clear   68 9     10%     30.14        
Feb 17 10:50 ENE 4   Clear   67 11     11%     30.15        
Feb 17 10:40 NE 4   Clear   67 10     11%     30.15        
Feb 17 10:30 E 4   Clear   67 8     10%     30.15        
Feb 17 10:20 N 2   Clear   68 9     10%     30.15        
Feb 17 10:10 N 2   Clear   66 8     10%     30.15        
Feb 17 10:00 NNW 3   Clear   65 7     10%     30.15        
Feb 17 09:50 NNW 3   Clear   65        %     30.15        
Feb 17 09:40 N 3   Clear   65 7     10%     30.14        
Feb 17 09:30 NE 2   Clear   68 7     9%     30.14        
Feb 17 09:20 SE 1   Clear   67 6     9%     30.14        
Feb 17 09:10 ESE 1   Clear   65 7     10%     30.13        
Feb 17 09:00 Calm   Clear   64        %     30.13        
Feb 17 08:50 SE 1   Clear   63 8     11%     30.13        
Feb 17 08:40 ENE 1   Clear   62 7     11%     30.13        
Feb 17 08:30 NNE 2   Clear   61 8     12%     30.13        
Feb 17 08:20 NNE 2   Clear   60 7     12%     30.13        
Feb 17 08:10 NNE 3   Clear   61 8     12%     30.12        
Feb 17 08:00 S 4   Clear   62        %     30.12        
Notice The following observation data may not be complete
Feb 17 07:50 S 5   Clear            %     30.11        
Notice The following observation data may not be complete
Feb 17 07:40 S 4   Clear            %     30.11        
Notice The following observation data may not be complete
Feb 17 07:30 S 5   Clear            %     30.11        
Feb 17 07:20 S 6   Clear   59        %     30.11        
Feb 17 07:10 S 6   Clear   58        %     30.11        
Notice The following observation data may not be complete
Feb 17 07:00 S 6   Clear            %     30.11        
Notice The following observation data may not be complete
Feb 17 06:50 SSW 6   Clear            %     30.1        
Notice The following observation data may not be complete
Feb 17 06:40 SSW 6   Clear            %     30.1        
Notice The following observation data may not be complete
Feb 17 06:30 S 6   Clear            %     30.1        
Notice The following observation data may not be complete
Feb 17 06:20 SSW 6   Clear            %     30.1        
Notice The following observation data may not be complete
Feb 17 06:10 SSW 7   Clear            %     30.1        
Notice The following observation data may not be complete
Feb 17 06:00 S 5   Clear            %     30.1        
Notice The following observation data may not be complete
Feb 17 05:50 S 5   Clear            %     30.1        
Notice The following observation data may not be complete
Feb 17 05:40 S 5   Clear            %     30.1        
Notice The following observation data may not be complete
Feb 17 05:30 SSW 5   Clear            %     30.1        
Notice The following observation data may not be complete
Feb 17 05:20 SSW 5   Clear            %     30.1        
Notice The following observation data may not be complete
Feb 17 05:10 SSW 5   Clear            %     30.09        
Notice The following observation data may not be complete
Feb 17 05:00 SSW 6   Clear            %     30.09        
Notice The following observation data may not be complete
Feb 17 04:50 S 5   Clear            %     30.1        
Notice The following observation data may not be complete
Feb 17 04:40 S 4   Clear            %     30.09        
Notice The following observation data may not be complete
Feb 17 04:30 S 4   Clear            %     30.09        
Feb 17 04:20 S 4   Clear   56        %     30.09        
Feb 17 04:10 S 4   Clear   57        %     30.09        
Notice The following observation data may not be complete
Feb 17 04:00 SSW 5   Clear            %     30.1        
Notice The following observation data may not be complete
Feb 17 03:50 SSW 7   Clear            %     30.09        
Notice The following observation data may not be complete
Feb 17 03:40 SSW 9   Clear            %     30.09        
Notice The following observation data may not be complete
Feb 17 03:30 SW 11   Clear            %     30.09        
Notice The following observation data may not be complete
Feb 17 03:20 SSW 11   Clear            %     30.09        
Feb 17 03:10 SW 10   Clear   59 4     11%     30.09        
Notice The following observation data may not be complete
Feb 17 03:00 SW 10   Clear     4      %     30.09        
Notice The following observation data may not be complete
Feb 17 02:50 SSW 9   Clear            %     30.09        
Notice The following observation data may not be complete
Feb 17 02:40 SSW 8   Clear     4      %     30.1        
Notice The following observation data may not be complete
Feb 17 02:30 SSW 8   Clear     4      %     30.1        
Feb 17 02:20 SSW 9   Clear   58        %     30.1        
Feb 17 02:10 SSW 8   Clear   58        %     30.1        
Feb 17 02:00 SSW 9   Clear   58        %     30.1        
Feb 17 01:50 SSW 8   Clear   58        %     30.1        
Notice The following observation data may not be complete
Feb 17 01:40 SSW 9   Clear     4      %     30.1        
Notice The following observation data may not be complete
Feb 17 01:30 SSW 9   Clear     4      %     30.1        
Notice The following observation data may not be complete
Feb 17 01:20 SW 10   Clear     4      %     30.1        
Notice The following observation data may not be complete
Feb 17 01:10 SSW 10   Clear     4      %     30.1        
Feb 17 01:00 SSW 11   Clear   59        %     30.11        
Feb 17 00:50 SSW 10   Clear   59        %     30.1        
Feb 17 00:40 SSW 10   Clear   59        %     30.1        
Feb 17 00:30 SW 10   Clear   59        %     30.1        
Feb 17 00:20 SW 11   Clear   59 6     12%     30.1        
Feb 17 00:10 SW 11   Clear   59 7     12%     30.1        
Feb 17 00:00 SW 11   Clear   59 7     12%     30.1        
Feb 16 23:50 SSW 11   Clear   59 7     12%     30.1        
Feb 16 23:40 SSW 9   Clear   59 6     12%     30.11        
Feb 16 23:30 SSW 10   Clear   59 6     12%     30.11        
Feb 16 23:20 SSW 11   Clear   59 6     12%     30.11        
Feb 16 23:10 SSW 9   Clear   59 7     12%     30.11        
Feb 16 23:00 SSW 10   Clear   59 7     12%     30.11        
Feb 16 22:50 SSW 11   Clear   59 7     12%     30.1        
Feb 16 22:40 SSW 9   Clear   59 7     12%     30.1        
Feb 16 22:30 SW 10   Clear   60 7     12%     30.1        
Feb 16 22:20 SW 9   Clear   60 7     12%     30.1        
Feb 16 22:10 SW 9   Clear   60 7     12%     30.1        
Feb 16 22:00 SSW 9   Clear   60 7     12%     30.1        
Feb 16 21:50 SW 10   Clear   60 7     12%     30.1        
Feb 16 21:40 SSW 10   Clear   60 7     12%     30.1        
Feb 16 21:30 SW 11   Clear   60 8     12%     30.1        
Feb 16 21:20 SSW 12   Clear   60 8     12%     30.1        
Feb 16 21:10 SW 12   Clear   60 8     12%     30.1        
Feb 16 21:00 SSW 8   Clear   61 8     12%     30.09        
Feb 16 20:50 SSW 9   Clear   61 8     12%     30.08        
Feb 16 20:40 SSW 10   Clear   61 8     12%     30.07        
Feb 16 20:30 SSW 10   Clear   61 8     12%     30.07        
Feb 16 20:20 SSW 9   Clear   61 8     12%     30.07        
Feb 16 20:10 SSW 9   Clear   62 8     12%     30.06        
Feb 16 20:00 SSW 10   Clear   62 9     12%     30.07        
Feb 16 19:50 SSW 11   Clear   62 9     12%     30.07        
Feb 16 19:40 SSW 11   Clear   62 9     12%     30.07        
Feb 16 19:30 SSW 11   Clear   62 9     12%     30.07        
Feb 16 19:20 SSW 9   Clear   62 9     12%     30.07        
Feb 16 19:10 SW 9   Clear   63 9     12%     30.07